Watford City, ND

8:39 PM CDT on May 22, 2018 (GMT -0500)
Watford City

Weather History for KS25 - December, 2012

Change the Weather History Date:

Monday, December 10, 2012

  Actual Average (KISN) Record (KISN)
Temperature  
Mean Temperature 16 °F -  
Max Temperature 26 °F 27 °F 54 °F (1987)
Min Temperature 5 °F 5 °F -27 °F (1919)
Degree Days  
Heating Degree Days 50    
Moisture  
Dew Point 14 °F    
Average Humidity 79    
Maximum Humidity 93    
Minimum Humidity 67    
Precipitation  
Precipitation 0.03 in - - ()
Sea Level Pressure  
Sea Level Pressure 29.70 in    
Wind  
Wind Speed 9 mph (West)    
Max Wind Speed 20 mph    
Max Gust Speed 29 mph    
Visibility 10 miles    
Events Rain , Snow    
Averages and records for this station are not official NWS values.
T = Trace of Precipitation, MM = Missing Value Source: NWS Daily Summary

Daily Weather History Graph

Daily Weather History Graph

Search for Another Location

Airport or City:

Astronomy

Dec. 10, 2012 Rise Set
Actual Time 8:31 AM CST 5:00 PM CST
Civil Twilight 7:55 AM CST 5:36 PM CST
Nautical Twilight 7:16 AM CST 6:15 PM CST
Astronomical Twilight 6:38 AM CST 6:53 PM CST
Moon 5:09 AM CST (12/10) 2:58 PM CST (12/10)
Length of Visible Light 9h 41m
Length of Day
8h 29m
Waning Crescent, 10% of the Moon is Illuminated
Dec 10
Waning Crescent
Dec 13
New
Dec 19
First Quarter
Dec 28
Full
Jan 4
Last Quarter

Hourly Weather History & Observations

Time (CST) Temp. Windchill Dew Point Humidity Pressure Visibility Wind Dir Wind Speed Gust Speed Precip Events Conditions
12:15 AM 6.8 °F -5.9 °F 1.4 °F 79% 29.86 in 10.0 mi South 8.1 mph - N/A   Clear
12:35 AM 6.8 °F -0.1 °F -0.4 °F 72% 29.85 in 10.0 mi South 3.5 mph - N/A   Clear
12:55 AM 5.0 °F -2.1 °F -0.4 °F 78% 29.84 in 10.0 mi SSW 3.5 mph - N/A   Clear
1:15 AM 5.0 °F -5.6 °F -0.4 °F 78% 29.81 in 10.0 mi South 5.8 mph - N/A   Clear
1:35 AM 8.6 °F -1.3 °F 1.4 °F 73% 29.80 in 10.0 mi South 5.8 mph - N/A   Clear
1:55 AM 8.6 °F 2.0 °F 1.4 °F 73% 29.79 in 10.0 mi South 3.5 mph - N/A   Clear
2:15 AM 5.0 °F -4.1 °F -2.2 °F 72% 29.78 in 10.0 mi NW 4.6 mph - N/A   Clear
2:55 AM 10.4 °F -1.5 °F 1.4 °F 67% 29.74 in 10.0 mi SSW 8.1 mph - N/A   Clear
3:15 AM 6.8 °F - 1.4 °F 79% 29.73 in 10.0 mi Calm Calm - N/A   Clear
3:35 AM 6.8 °F - -0.4 °F 72% 29.72 in 10.0 mi Calm Calm - N/A   Clear
3:55 AM 8.6 °F -4.7 °F 1.4 °F 73% 29.71 in 10.0 mi WSW 9.2 mph - N/A   Clear
4:15 AM 10.4 °F -1.5 °F 3.2 °F 73% 29.69 in 10.0 mi SW 8.1 mph - N/A   Clear
4:35 AM 10.4 °F -3.3 °F 5.0 °F 79% 29.69 in 10.0 mi WSW 10.4 mph - N/A   Partly Cloudy
4:55 AM 14.0 °F 2.9 °F 6.8 °F 73% 29.67 in 10.0 mi WSW 8.1 mph - N/A   Clear
5:15 AM 10.4 °F 0.8 °F 5.0 °F 79% 29.66 in 10.0 mi West 5.8 mph - N/A   Mostly Cloudy
5:35 AM 12.2 °F 2.9 °F 6.8 °F 79% 29.66 in 10.0 mi WSW 5.8 mph - N/A   Overcast
5:55 AM 14.0 °F 1.2 °F 8.6 °F 79% 29.65 in 10.0 mi West 10.4 mph - N/A   Mostly Cloudy
6:15 AM 14.0 °F 5.1 °F 8.6 °F 79% 29.65 in 10.0 mi WSW 5.8 mph - N/A   Mostly Cloudy
6:35 AM 14.0 °F 5.1 °F 8.6 °F 79% 29.64 in 10.0 mi WSW 5.8 mph - N/A   Mostly Cloudy
6:55 AM 14.0 °F 3.9 °F 8.6 °F 79% 29.63 in 10.0 mi WSW 6.9 mph - N/A   Mostly Cloudy
7:15 AM 15.8 °F 3.4 °F 10.4 °F 79% 29.63 in 10.0 mi SW 10.4 mph - N/A   Mostly Cloudy
7:35 AM 17.6 °F 4.3 °F 10.4 °F 73% 29.63 in 10.0 mi WSW 12.7 mph - N/A   Mostly Cloudy
7:55 AM 15.8 °F 3.4 °F 10.4 °F 79% 29.63 in 10.0 mi WSW 10.4 mph - N/A   Overcast
8:15 AM 15.8 °F 3.4 °F 10.4 °F 79% 29.63 in 10.0 mi WSW 10.4 mph - N/A   Overcast
8:35 AM 15.8 °F 3.4 °F 10.4 °F 79% 29.63 in 10.0 mi SW 10.4 mph - N/A   Overcast
8:55 AM 15.8 °F 5.1 °F 10.4 °F 79% 29.64 in 10.0 mi WSW 8.1 mph - N/A   Overcast
9:15 AM 17.6 °F 5.7 °F 14.0 °F 86% 29.64 in 5.0 mi West 10.4 mph - N/A Snow Light Snow
9:35 AM 19.4 °F 8.6 °F 15.8 °F 86% 29.65 in 10.0 mi West 9.2 mph - N/A   Mostly Cloudy
9:55 AM 19.4 °F 7.9 °F 15.8 °F 86% 29.66 in 10.0 mi West 10.4 mph - N/A   Mostly Cloudy
10:15 AM 21.2 °F 10.1 °F 15.8 °F 80% 29.66 in 10.0 mi West 10.4 mph - N/A   Overcast
10:35 AM 23.0 °F 11.1 °F 15.8 °F 74% 29.67 in 10.0 mi West 12.7 mph 18.4 mph N/A   Overcast
10:55 AM 23.0 °F 10.6 °F 15.8 °F 74% 29.68 in 10.0 mi WNW 13.8 mph - N/A   Scattered Clouds
11:15 AM 23.0 °F 11.7 °F 15.8 °F 74% 29.68 in 10.0 mi WNW 11.5 mph 18.4 mph N/A   Clear
11:35 AM 21.2 °F 10.1 °F 15.8 °F 80% 29.68 in 10.0 mi West 10.4 mph - N/A   Clear
12:15 PM 21.2 °F 9.5 °F 15.8 °F 80% 29.68 in 10.0 mi WNW 11.5 mph - N/A   Clear
12:35 PM 23.0 °F 12.4 °F 15.8 °F 74% 29.69 in 10.0 mi West 10.4 mph - N/A   Clear
12:55 PM 23.0 °F 11.7 °F 15.8 °F 74% 29.69 in 10.0 mi West 11.5 mph 19.6 mph N/A   Partly Cloudy
1:15 PM 23.0 °F 9.2 °F 17.6 °F 80% 29.69 in 10.0 mi WNW 17.3 mph 24.2 mph N/A   Mostly Cloudy
1:35 PM 24.8 °F 12.4 °F 17.6 °F 74% 29.68 in 10.0 mi WNW 15.0 mph 23.0 mph N/A Rain Light Freezing Rain
1:55 PM 24.8 °F 13.4 °F 19.4 °F 80% 29.69 in 5.0 mi WNW 12.7 mph 20.7 mph 0.01 in Snow Light Snow
2:15 PM 24.8 °F 12.4 °F 19.4 °F 80% 29.68 in 10.0 mi WNW 15.0 mph 19.6 mph N/A Snow Light Snow
2:35 PM 24.8 °F 11.1 °F 17.6 °F 74% 29.68 in 10.0 mi WNW 18.4 mph 25.3 mph N/A Rain Light Freezing Rain
2:55 PM 24.8 °F 11.5 °F 19.4 °F 80% 29.69 in 10.0 mi WNW 17.3 mph 26.5 mph N/A Rain Light Freezing Rain
3:15 PM 24.8 °F 12.9 °F 19.4 °F 80% 29.69 in 10.0 mi WNW 13.8 mph - N/A Snow Light Snow
3:35 PM 24.8 °F 13.4 °F 19.4 °F 80% 29.69 in 10.0 mi WNW 12.7 mph - N/A   Overcast
3:55 PM 24.8 °F 10.7 °F 19.4 °F 80% 29.70 in 5.0 mi NW 19.6 mph 25.3 mph 0.01 in Snow Light Snow
4:15 PM 24.8 °F 10.7 °F 17.6 °F 74% 29.71 in 10.0 mi NW 19.6 mph 27.6 mph N/A   Overcast
4:35 PM 24.8 °F 10.7 °F 17.6 °F 74% 29.72 in 10.0 mi NW 19.6 mph 28.8 mph N/A   Overcast
4:55 PM 24.8 °F 13.4 °F 17.6 °F 74% 29.73 in 10.0 mi NW 12.7 mph 21.9 mph N/A   Overcast
5:15 PM 23.0 °F 11.1 °F 17.6 °F 80% 29.74 in 10.0 mi NW 12.7 mph 17.3 mph N/A   Overcast
5:35 PM 23.0 °F 12.4 °F 17.6 °F 80% 29.74 in 10.0 mi WNW 10.4 mph - N/A   Overcast
5:55 PM 23.0 °F 13.1 °F 17.6 °F 80% 29.73 in 10.0 mi WNW 9.2 mph - N/A   Overcast
6:15 PM 23.0 °F 13.9 °F 19.4 °F 86% 29.73 in 10.0 mi WNW 8.1 mph - N/A Rain Light Freezing Rain
6:35 PM 23.0 °F 14.7 °F 19.4 °F 86% 29.73 in 10.0 mi WNW 6.9 mph - N/A   Mostly Cloudy
6:55 PM 23.0 °F 17.0 °F 19.4 °F 86% 29.73 in 7.0 mi WNW 4.6 mph - N/A Snow Light Snow
7:15 PM 23.0 °F 18.4 °F 19.4 °F 86% 29.73 in 10.0 mi West 3.5 mph - N/A   Overcast
7:35 PM 23.0 °F - 19.4 °F 86% 29.72 in 9.0 mi Calm Calm - N/A Snow Light Snow
7:55 PM 23.0 °F 17.0 °F 21.2 °F 93% 29.72 in 3.0 mi SW 4.6 mph - 0.01 in Snow Light Snow
8:15 PM 24.8 °F 17.9 °F 23.0 °F 93% 29.71 in 10.0 mi WSW 5.8 mph - N/A   Overcast
8:55 PM 26.6 °F 15.7 °F 23.0 °F 86% 29.71 in 10.0 mi West 12.7 mph - N/A   Overcast
9:15 PM 26.6 °F 14.7 °F 23.0 °F 86% 29.71 in 10.0 mi West 15.0 mph 20.7 mph N/A   Mostly Cloudy
9:35 PM 26.6 °F 15.2 °F 23.0 °F 86% 29.71 in 10.0 mi West 13.8 mph - N/A   Mostly Cloudy
9:55 PM 26.6 °F 13.8 °F 21.2 °F 80% 29.71 in 10.0 mi WNW 17.3 mph 21.9 mph N/A   Overcast
10:15 PM 24.8 °F 12.4 °F 21.2 °F 86% 29.72 in 10.0 mi WNW 15.0 mph 21.9 mph N/A   Overcast
10:35 PM 26.6 °F 14.7 °F 23.0 °F 86% 29.72 in 10.0 mi WNW 15.0 mph 19.6 mph N/A   Overcast
10:55 PM 26.6 °F 13.8 °F 21.2 °F 80% 29.72 in 10.0 mi WNW 17.3 mph 23.0 mph N/A   Overcast
11:15 PM 26.6 °F 14.3 °F 21.2 °F 80% 29.72 in 10.0 mi WNW 16.1 mph - N/A   Overcast
11:35 PM 26.6 °F 13.8 °F 21.2 °F 80% 29.72 in 10.0 mi NW 17.3 mph 23.0 mph N/A   Overcast
11:55 PM 24.8 °F 12.4 °F 19.4 °F 80% 29.73 in 10.0 mi NW 15.0 mph 19.6 mph N/A   Overcast